Location: Observatorio Astronomico Bellanoche
(41.2340°N, 103.6610°W)
Time: 20:14:39

N. Korean satellite - Visible Passes

Search period start: 17 March 2018 00:00
Search period end: 27 March 2018 00:00
Orbit: 460 x 512 km, 97.2° (Epoch: 17 March)

Date Brightness Start Highest point End Pass type
(mag) Time Alt. Az. Time Alt. Az. Time Alt. Az.
19 Mar 10.5 20:01:04 10° WSW 20:01:59 11° W 20:02:53 10° WNW visible
20 Mar 9.7 19:35:09 10° SW 19:37:57 21° W 19:40:49 10° NW visible
23 Mar 10.3 19:58:54 10° WSW 20:00:08 11° W 20:01:23 10° WNW visible
24 Mar 9.7 19:33:13 10° SSW 19:36:07 22° W 19:39:04 10° NW visible
